Year,Month,Day,Hour,Minute,Value (Times are PST for temperature in C)
2006,05,03,00,00,3.80
2006,05,03,00,01,3.80
2006,05,03,00,02,3.80
2006,05,03,00,03,3.80
2006,05,03,00,04,3.70
2006,05,03,00,05,3.70
2006,05,03,00,06,3.70
2006,05,03,00,07,3.70
2006,05,03,00,08,3.70
2006,05,03,00,09,3.60
2006,05,03,00,10,3.60
2006,05,03,00,11,3.60
2006,05,03,00,12,3.60
2006,05,03,00,13,3.50
2006,05,03,00,14,3.60
2006,05,03,00,15,3.60
2006,05,03,00,16,3.50
2006,05,03,00,17,3.50
2006,05,03,00,18,3.50
2006,05,03,00,19,3.50
2006,05,03,00,20,3.50
2006,05,03,00,21,3.50
2006,05,03,00,22,3.50
2006,05,03,00,23,3.40
2006,05,03,00,24,3.40
2006,05,03,00,25,3.40
2006,05,03,00,26,3.30
2006,05,03,00,27,3.30
2006,05,03,00,28,3.30
2006,05,03,00,29,3.30
2006,05,03,00,30,3.30
2006,05,03,00,31,3.30
2006,05,03,00,32,3.20
2006,05,03,00,33,3.30
2006,05,03,00,34,3.30
2006,05,03,00,35,3.30
2006,05,03,00,36,3.30
2006,05,03,00,37,3.30
2006,05,03,00,38,3.30
2006,05,03,00,39,3.30
2006,05,03,00,40,3.30
2006,05,03,00,41,3.30
2006,05,03,00,42,3.30
2006,05,03,00,43,3.30
2006,05,03,00,44,3.20
2006,05,03,00,45,3.20
2006,05,03,00,46,3.20
2006,05,03,00,47,3.10
2006,05,03,00,48,3.10
2006,05,03,00,49,3.10
2006,05,03,00,50,3.10
2006,05,03,00,51,3.20
2006,05,03,00,52,3.20
2006,05,03,00,53,3.20
2006,05,03,00,54,3.10
2006,05,03,00,55,3.10
2006,05,03,00,56,3.10
2006,05,03,00,57,3.10
2006,05,03,00,58,3.10
2006,05,03,00,59,3.10
2006,05,03,01,00,3.10
2006,05,03,01,01,3.10
2006,05,03,01,02,3.10
2006,05,03,01,03,3.10
2006,05,03,01,04,3.10
2006,05,03,01,05,3.10
2006,05,03,01,06,3.10
2006,05,03,01,07,3.10
2006,05,03,01,08,3.00
2006,05,03,01,09,3.00
2006,05,03,01,10,2.90
2006,05,03,01,11,2.90
2006,05,03,01,12,2.90
2006,05,03,01,13,2.90
2006,05,03,01,14,2.90
2006,05,03,01,15,2.90
2006,05,03,01,16,2.90
2006,05,03,01,17,2.90
2006,05,03,01,18,2.90
2006,05,03,01,19,2.90
2006,05,03,01,20,2.90
2006,05,03,01,21,2.90
2006,05,03,01,22,2.90
2006,05,03,01,23,2.90
2006,05,03,01,24,2.90
2006,05,03,01,25,2.90
2006,05,03,01,26,2.90
2006,05,03,01,27,2.90
2006,05,03,01,28,2.90
2006,05,03,01,29,2.90
2006,05,03,01,30,2.90
2006,05,03,01,31,3.10
2006,05,03,01,32,3.10
2006,05,03,01,33,3.10
2006,05,03,01,34,3.10
2006,05,03,01,35,3.10
2006,05,03,01,36,3.10
2006,05,03,01,37,3.10
2006,05,03,01,38,3.10
2006,05,03,01,39,3.10
2006,05,03,01,40,3.10
2006,05,03,01,41,3.10
2006,05,03,01,42,3.10
2006,05,03,01,43,3.10
2006,05,03,01,44,3.10
2006,05,03,01,45,2.90
2006,05,03,01,46,2.90
2006,05,03,01,47,2.90
2006,05,03,01,48,2.90
2006,05,03,01,49,2.90
2006,05,03,01,50,2.90
2006,05,03,01,51,2.90
2006,05,03,01,52,2.90
2006,05,03,01,53,2.80
2006,05,03,01,54,2.80
2006,05,03,01,55,2.80
2006,05,03,01,56,2.80
2006,05,03,01,57,2.80
2006,05,03,01,58,2.70
2006,05,03,01,59,2.70
2006,05,03,02,00,2.70
2006,05,03,02,01,2.70
2006,05,03,02,02,2.70
2006,05,03,02,03,2.70
2006,05,03,02,04,2.60
2006,05,03,02,05,2.60
2006,05,03,02,06,2.50
2006,05,03,02,07,2.50
2006,05,03,02,08,2.40
2006,05,03,02,09,2.40
2006,05,03,02,10,2.40
2006,05,03,02,11,2.30
2006,05,03,02,12,2.30
2006,05,03,02,13,2.30
2006,05,03,02,14,2.30
2006,05,03,02,15,2.30
2006,05,03,02,16,2.30
2006,05,03,02,17,2.30
2006,05,03,02,18,2.30
2006,05,03,02,19,2.30
2006,05,03,02,20,2.30
2006,05,03,02,21,2.30
2006,05,03,02,22,2.30
2006,05,03,02,23,2.30
2006,05,03,02,24,2.30
2006,05,03,02,25,2.30
2006,05,03,02,26,2.30
2006,05,03,02,27,2.30
2006,05,03,02,28,2.20
2006,05,03,02,29,2.20
2006,05,03,02,30,2.20
2006,05,03,02,31,2.20
2006,05,03,02,32,2.20
2006,05,03,02,33,2.20
2006,05,03,02,34,2.20
2006,05,03,02,35,2.20
2006,05,03,02,36,2.20
2006,05,03,02,37,2.20
2006,05,03,02,38,2.20
2006,05,03,02,39,2.20
2006,05,03,02,40,2.20
2006,05,03,02,41,2.20
2006,05,03,02,42,2.20
2006,05,03,02,43,2.10
2006,05,03,02,44,2.10
2006,05,03,02,45,2.10
2006,05,03,02,46,2.00
2006,05,03,02,47,2.00
2006,05,03,02,48,2.00
2006,05,03,02,49,2.00
2006,05,03,02,50,2.00
2006,05,03,02,51,2.00
2006,05,03,02,52,2.00
2006,05,03,02,53,2.00
2006,05,03,02,54,1.90
2006,05,03,02,55,1.90
2006,05,03,02,56,1.90
2006,05,03,02,57,1.90
2006,05,03,02,58,1.90
2006,05,03,02,59,1.90
2006,05,03,03,00,1.90
2006,05,03,03,01,1.90
2006,05,03,03,02,1.90
2006,05,03,03,03,1.90
2006,05,03,03,04,1.90
2006,05,03,03,05,1.90
2006,05,03,03,06,1.90
2006,05,03,03,07,1.90
2006,05,03,03,08,1.90
2006,05,03,03,09,1.90
2006,05,03,03,10,1.90
2006,05,03,03,11,1.90
2006,05,03,03,12,1.80
2006,05,03,03,13,1.80
2006,05,03,03,14,1.80
2006,05,03,03,15,1.90
2006,05,03,03,16,1.90
2006,05,03,03,17,1.90
2006,05,03,03,18,1.90
2006,05,03,03,19,1.90
2006,05,03,03,20,1.90
2006,05,03,03,21,1.90
2006,05,03,03,22,1.90
2006,05,03,03,23,1.80
2006,05,03,03,24,1.80
2006,05,03,03,25,1.80
2006,05,03,03,26,1.80
2006,05,03,03,27,1.80
2006,05,03,03,28,1.80
2006,05,03,03,29,1.80
2006,05,03,03,30,1.70
2006,05,03,03,31,1.70
2006,05,03,03,32,1.70
2006,05,03,03,33,1.70
2006,05,03,03,34,1.70
2006,05,03,03,35,1.60
2006,05,03,03,36,1.60
2006,05,03,03,37,1.60
2006,05,03,03,38,1.60
2006,05,03,03,39,1.60
2006,05,03,03,40,1.60
2006,05,03,03,41,1.50
2006,05,03,03,42,1.50
2006,05,03,03,43,1.50
2006,05,03,03,44,1.50
2006,05,03,03,45,1.40
2006,05,03,03,46,1.40
2006,05,03,03,47,1.50
2006,05,03,03,48,1.50
2006,05,03,03,49,1.50
2006,05,03,03,50,1.50
2006,05,03,03,51,1.50
2006,05,03,03,52,1.50
2006,05,03,03,53,1.40
2006,05,03,03,54,1.40
2006,05,03,03,55,1.40
2006,05,03,03,56,1.40
2006,05,03,03,57,1.40
2006,05,03,03,58,1.30
2006,05,03,03,59,1.30
2006,05,03,04,00,1.30
2006,05,03,04,01,1.30
2006,05,03,04,02,1.30
2006,05,03,04,03,1.30
2006,05,03,04,04,1.30
2006,05,03,04,05,1.30
2006,05,03,04,06,1.30
2006,05,03,04,07,1.30
2006,05,03,04,08,1.30
2006,05,03,04,09,1.30
2006,05,03,04,10,1.30
2006,05,03,04,11,1.30
2006,05,03,04,12,1.30
2006,05,03,04,13,1.30
2006,05,03,04,14,1.30
2006,05,03,04,15,1.30
2006,05,03,04,16,1.20
2006,05,03,04,17,1.20
2006,05,03,04,18,1.30
2006,05,03,04,19,1.30
2006,05,03,04,20,1.30
2006,05,03,04,21,1.30
2006,05,03,04,22,1.30
2006,05,03,04,23,1.30
2006,05,03,04,24,1.30
2006,05,03,04,25,1.30
2006,05,03,04,26,1.30
2006,05,03,04,27,1.30
2006,05,03,04,28,1.30
2006,05,03,04,29,1.30
2006,05,03,04,30,1.30
2006,05,03,04,31,1.30
2006,05,03,04,32,1.30
2006,05,03,04,33,1.30
2006,05,03,04,34,1.30
2006,05,03,04,35,1.30
2006,05,03,04,36,1.30
2006,05,03,04,37,1.30
2006,05,03,04,38,1.30
2006,05,03,04,39,1.30
2006,05,03,04,40,1.30
2006,05,03,04,41,1.30
2006,05,03,04,42,1.30
2006,05,03,04,43,1.20
2006,05,03,04,44,1.20
2006,05,03,04,45,1.20
2006,05,03,04,46,1.20
2006,05,03,04,47,1.20
2006,05,03,04,48,1.20
2006,05,03,04,49,1.20
2006,05,03,04,50,1.20
2006,05,03,04,51,1.20
2006,05,03,04,52,1.20
2006,05,03,04,53,1.10
2006,05,03,04,54,1.10
2006,05,03,04,55,1.10
2006,05,03,04,56,1.10
2006,05,03,04,57,1.10
2006,05,03,04,58,1.10
2006,05,03,04,59,1.10
2006,05,03,05,00,1.10
2006,05,03,05,01,1.10
2006,05,03,05,02,1.10
2006,05,03,05,03,1.10
2006,05,03,05,04,1.20
2006,05,03,05,05,1.20
2006,05,03,05,06,1.20
2006,05,03,05,07,1.20
2006,05,03,05,08,1.20
2006,05,03,05,09,1.20
2006,05,03,05,10,1.10
2006,05,03,05,11,1.10
2006,05,03,05,12,1.10
2006,05,03,05,13,1.10
2006,05,03,05,14,1.10
2006,05,03,05,15,1.10
2006,05,03,05,16,1.10
2006,05,03,05,17,1.10
2006,05,03,05,18,1.20
2006,05,03,05,19,1.20
2006,05,03,05,20,1.20
2006,05,03,05,21,1.10
2006,05,03,05,22,1.10
2006,05,03,05,23,1.10
2006,05,03,05,24,1.10
2006,05,03,05,25,1.10
2006,05,03,05,26,1.10
2006,05,03,05,27,1.10
2006,05,03,05,28,1.10
2006,05,03,05,29,1.10
2006,05,03,05,30,1.00
2006,05,03,05,31,1.00
2006,05,03,05,32,1.00
2006,05,03,05,33,1.00
2006,05,03,05,34,1.00
2006,05,03,05,35,1.00
2006,05,03,05,36,1.00
2006,05,03,05,37,1.00
2006,05,03,05,38,1.00
2006,05,03,05,39,1.00
2006,05,03,05,40,0.90
2006,05,03,05,41,0.90
2006,05,03,05,42,1.00
2006,05,03,05,43,1.00
2006,05,03,05,44,1.00
2006,05,03,05,45,0.90
2006,05,03,05,46,0.90
2006,05,03,05,47,0.90
2006,05,03,05,48,0.80
2006,05,03,05,49,0.80
2006,05,03,05,50,0.80
2006,05,03,05,51,0.80
2006,05,03,05,52,0.70
2006,05,03,05,53,0.70
2006,05,03,05,54,0.70
2006,05,03,05,55,0.70
2006,05,03,05,56,0.70
2006,05,03,05,57,0.60
2006,05,03,05,58,0.60
2006,05,03,05,59,0.60
2006,05,03,06,00,0.60
2006,05,03,06,01,0.60
2006,05,03,06,02,0.60
2006,05,03,06,03,0.60
2006,05,03,06,04,0.60
2006,05,03,06,05,0.60
2006,05,03,06,06,0.60
2006,05,03,06,07,0.60
2006,05,03,06,08,0.60
2006,05,03,06,09,0.60
2006,05,03,06,10,0.60
2006,05,03,06,11,0.60
2006,05,03,06,12,0.60
2006,05,03,06,13,0.60
2006,05,03,06,14,0.60
2006,05,03,06,15,0.60
2006,05,03,06,16,0.60
2006,05,03,06,17,0.60
2006,05,03,06,18,0.60
2006,05,03,06,19,0.60
2006,05,03,06,20,0.60
2006,05,03,06,21,0.60
2006,05,03,06,22,0.60
2006,05,03,06,23,0.60
2006,05,03,06,24,0.60
2006,05,03,06,25,0.60
2006,05,03,06,26,0.60
2006,05,03,06,27,0.60
2006,05,03,06,28,0.60
2006,05,03,06,29,0.60
2006,05,03,06,30,0.70
2006,05,03,06,31,0.70
2006,05,03,06,32,0.70
2006,05,03,06,33,0.70
2006,05,03,06,34,0.70
2006,05,03,06,35,0.70
2006,05,03,06,36,0.70
2006,05,03,06,37,0.70
2006,05,03,06,38,0.70
2006,05,03,06,39,0.70
2006,05,03,06,40,0.70
2006,05,03,06,41,0.80
2006,05,03,06,42,0.80
2006,05,03,06,43,0.80
2006,05,03,06,44,0.80
2006,05,03,06,45,0.80
2006,05,03,06,46,0.80
2006,05,03,06,47,0.90
2006,05,03,06,48,0.90
2006,05,03,06,49,0.90
2006,05,03,06,50,1.00
2006,05,03,06,51,1.00
2006,05,03,06,52,1.00
2006,05,03,06,53,1.00
2006,05,03,06,54,1.00
2006,05,03,06,55,1.10
2006,05,03,06,56,1.10
2006,05,03,06,57,1.20
2006,05,03,06,58,1.20
2006,05,03,06,59,1.30
2006,05,03,07,00,1.30
2006,05,03,07,01,1.40
2006,05,03,07,02,1.50
2006,05,03,07,03,1.70
2006,05,03,07,04,1.80
2006,05,03,07,05,1.90
2006,05,03,07,06,2.00
2006,05,03,07,07,2.00
2006,05,03,07,08,2.10
2006,05,03,07,09,2.30
2006,05,03,07,10,2.40
2006,05,03,07,11,2.50
2006,05,03,07,12,2.60
2006,05,03,07,13,2.80
2006,05,03,07,14,2.80
2006,05,03,07,15,3.00
2006,05,03,07,16,3.10
2006,05,03,07,17,3.20
2006,05,03,07,18,3.30
2006,05,03,07,19,3.40
2006,05,03,07,20,3.50
2006,05,03,07,21,3.60
2006,05,03,07,22,3.70
2006,05,03,07,23,3.90
2006,05,03,07,24,4.00
2006,05,03,07,25,4.20
2006,05,03,07,26,4.30
2006,05,03,07,27,4.50
2006,05,03,07,28,4.50
2006,05,03,07,29,4.70
2006,05,03,07,30,4.90
2006,05,03,07,31,5.00
2006,05,03,07,32,5.10
2006,05,03,07,33,5.30
2006,05,03,07,34,5.40
2006,05,03,07,35,5.50
2006,05,03,07,36,5.70
2006,05,03,07,37,5.70
2006,05,03,07,38,5.80
2006,05,03,07,39,5.90
2006,05,03,07,40,6.00
2006,05,03,07,41,6.20
2006,05,03,07,42,6.30
2006,05,03,07,43,6.40
2006,05,03,07,44,6.50
2006,05,03,07,45,6.60
2006,05,03,07,46,6.80
2006,05,03,07,47,6.90
2006,05,03,07,48,7.00
2006,05,03,07,49,7.10
2006,05,03,07,50,7.20
2006,05,03,07,51,7.30
2006,05,03,07,52,7.40
2006,05,03,07,53,7.60
2006,05,03,07,54,7.70
2006,05,03,07,55,7.80
2006,05,03,07,56,7.90
2006,05,03,07,57,8.10
2006,05,03,07,58,8.20
2006,05,03,07,59,8.30
2006,05,03,08,00,8.40
2006,05,03,08,01,8.50
2006,05,03,08,02,8.50
2006,05,03,08,03,8.60
2006,05,03,08,04,8.70
2006,05,03,08,05,8.70
2006,05,03,08,06,8.70
2006,05,03,08,07,8.80
2006,05,03,08,08,8.80
2006,05,03,08,09,8.90
2006,05,03,08,10,9.10
2006,05,03,08,11,9.20
2006,05,03,08,12,9.40
2006,05,03,08,13,9.60
2006,05,03,08,14,9.80
2006,05,03,08,15,9.90
2006,05,03,08,16,10.00
2006,05,03,08,17,10.10
2006,05,03,08,18,10.20
2006,05,03,08,19,10.30
2006,05,03,08,20,10.40
2006,05,03,08,21,10.40
2006,05,03,08,22,10.50
2006,05,03,08,23,10.60
2006,05,03,08,24,10.60
2006,05,03,08,25,10.60
2006,05,03,08,26,10.70
2006,05,03,08,27,10.70
2006,05,03,08,28,10.80
2006,05,03,08,29,10.90
2006,05,03,08,30,10.90
2006,05,03,08,31,11.00
2006,05,03,08,32,11.10
2006,05,03,08,33,11.20
2006,05,03,08,34,11.30
2006,05,03,08,35,11.40
2006,05,03,08,36,11.40
2006,05,03,08,37,11.60
2006,05,03,08,38,11.70
2006,05,03,08,39,11.80
2006,05,03,08,40,11.80
2006,05,03,08,41,11.90
2006,05,03,08,42,12.00
2006,05,03,08,43,12.00
2006,05,03,08,44,12.10
2006,05,03,08,45,12.20
2006,05,03,08,46,12.30
2006,05,03,08,47,12.30
2006,05,03,08,48,12.40
2006,05,03,08,49,12.50
2006,05,03,08,50,12.50
2006,05,03,08,51,12.60
2006,05,03,08,52,12.70
2006,05,03,08,53,12.70
2006,05,03,08,54,12.70
2006,05,03,08,55,12.70
2006,05,03,08,56,12.80
2006,05,03,08,57,12.80
2006,05,03,08,58,12.80
2006,05,03,08,59,12.90
2006,05,03,09,00,13.00
2006,05,03,09,01,13.00
2006,05,03,09,02,13.10
2006,05,03,09,03,13.10
2006,05,03,09,04,13.10
2006,05,03,09,05,13.20
2006,05,03,09,06,13.30
2006,05,03,09,07,13.30
2006,05,03,09,08,13.30
2006,05,03,09,09,13.30
2006,05,03,09,10,13.20
2006,05,03,09,11,13.20
2006,05,03,09,12,13.10
2006,05,03,09,13,13.10
2006,05,03,09,14,13.00
2006,05,03,09,15,13.10
2006,05,03,09,16,13.00
2006,05,03,09,17,13.10
2006,05,03,09,18,13.10
2006,05,03,09,19,13.20
2006,05,03,09,20,13.20
2006,05,03,09,21,13.20
2006,05,03,09,22,13.30
2006,05,03,09,23,13.20
2006,05,03,09,24,13.20
2006,05,03,09,25,13.20
2006,05,03,09,26,13.20
2006,05,03,09,27,13.20
2006,05,03,09,28,13.20
2006,05,03,09,29,13.20
2006,05,03,09,30,13.20
2006,05,03,09,31,13.20
2006,05,03,09,32,13.20
2006,05,03,09,33,13.30
2006,05,03,09,34,13.30
2006,05,03,09,35,13.30
2006,05,03,09,36,13.30
2006,05,03,09,37,13.30
2006,05,03,09,38,13.40
2006,05,03,09,39,13.40
2006,05,03,09,40,13.50
2006,05,03,09,41,13.50
2006,05,03,09,42,13.50
2006,05,03,09,43,13.60
2006,05,03,09,44,13.60
2006,05,03,09,45,13.70
2006,05,03,09,46,13.70
2006,05,03,09,47,13.80
2006,05,03,09,48,13.90
2006,05,03,09,49,13.90
2006,05,03,09,50,14.00
2006,05,03,09,51,14.10
2006,05,03,09,52,14.20
2006,05,03,09,53,14.20
2006,05,03,09,54,14.20
2006,05,03,09,55,14.20
2006,05,03,09,56,14.20
2006,05,03,09,57,14.10
2006,05,03,09,58,14.10
2006,05,03,09,59,14.10
2006,05,03,10,00,14.10
2006,05,03,10,01,14.10
2006,05,03,10,02,14.10
2006,05,03,10,03,14.20
2006,05,03,10,04,14.20
2006,05,03,10,05,14.20
2006,05,03,10,06,14.20
2006,05,03,10,07,14.20
2006,05,03,10,08,14.30
2006,05,03,10,09,14.30
2006,05,03,10,10,14.30
2006,05,03,10,11,14.30
2006,05,03,10,12,14.30
2006,05,03,10,13,14.40
2006,05,03,10,14,14.50
2006,05,03,10,15,14.60
2006,05,03,10,16,14.60
2006,05,03,10,17,14.70
2006,05,03,10,18,14.80
2006,05,03,10,19,14.80
2006,05,03,10,20,14.90
2006,05,03,10,21,15.00
2006,05,03,10,22,15.00
2006,05,03,10,23,15.00
2006,05,03,10,24,14.90
2006,05,03,10,25,14.90
2006,05,03,10,26,14.90
2006,05,03,10,27,14.90
2006,05,03,10,28,15.00
2006,05,03,10,29,15.00
2006,05,03,10,30,15.00
2006,05,03,10,31,15.00
2006,05,03,10,32,15.10
2006,05,03,10,33,15.20
2006,05,03,10,34,15.30
2006,05,03,10,35,15.30
2006,05,03,10,36,15.30
2006,05,03,10,37,15.30
2006,05,03,10,38,15.30
2006,05,03,10,39,15.40
2006,05,03,10,40,15.50
2006,05,03,10,41,15.50
2006,05,03,10,42,15.70
2006,05,03,10,43,15.60
2006,05,03,10,44,15.60
2006,05,03,10,45,15.60
2006,05,03,10,46,15.60
2006,05,03,10,47,15.60
2006,05,03,10,48,15.50
2006,05,03,10,49,15.40
2006,05,03,10,50,15.40
2006,05,03,10,51,15.40
2006,05,03,10,52,15.40
2006,05,03,10,53,15.40
2006,05,03,10,54,15.40
2006,05,03,10,55,15.50
2006,05,03,10,56,15.60
2006,05,03,10,57,15.60
2006,05,03,10,58,15.60
2006,05,03,10,59,15.50
2006,05,03,11,00,15.40
2006,05,03,11,01,15.30
2006,05,03,11,02,15.30
2006,05,03,11,03,15.40
2006,05,03,11,04,15.50
2006,05,03,11,05,15.60
2006,05,03,11,06,15.80
2006,05,03,11,07,15.90
2006,05,03,11,08,16.10
2006,05,03,11,09,16.10
2006,05,03,11,10,15.90
2006,05,03,11,11,15.80
2006,05,03,11,12,15.80
2006,05,03,11,13,15.70
2006,05,03,11,14,15.70
2006,05,03,11,15,15.70
2006,05,03,11,16,15.80
2006,05,03,11,17,15.80
2006,05,03,11,18,15.80
2006,05,03,11,19,15.80
2006,05,03,11,20,15.80
2006,05,03,11,21,15.80
2006,05,03,11,22,15.90
2006,05,03,11,23,15.80
2006,05,03,11,24,15.80
2006,05,03,11,25,15.80
2006,05,03,11,26,15.80
2006,05,03,11,27,15.90
2006,05,03,11,28,15.90
2006,05,03,11,29,15.90
2006,05,03,11,30,15.90
2006,05,03,11,31,15.90
2006,05,03,11,32,15.90
2006,05,03,11,33,15.90
2006,05,03,11,34,15.90
2006,05,03,11,35,16.00
2006,05,03,11,36,16.00
2006,05,03,11,37,16.00
2006,05,03,11,38,15.90
2006,05,03,11,39,15.90
2006,05,03,11,40,15.90
2006,05,03,11,41,15.90
2006,05,03,11,42,16.00
2006,05,03,11,43,16.10
2006,05,03,11,44,16.10
2006,05,03,11,45,16.10
2006,05,03,11,46,16.10
2006,05,03,11,47,16.20
2006,05,03,11,48,16.30
2006,05,03,11,49,16.30
2006,05,03,11,50,16.40
2006,05,03,11,51,16.40
2006,05,03,11,52,16.40
2006,05,03,11,53,16.40
2006,05,03,11,54,16.50
2006,05,03,11,55,16.60
2006,05,03,11,56,16.60
2006,05,03,11,57,16.70
2006,05,03,11,58,16.70
2006,05,03,11,59,16.70
2006,05,03,12,00,16.70
2006,05,03,12,01,16.70
2006,05,03,12,02,16.70
2006,05,03,12,03,16.80
2006,05,03,12,04,16.90
2006,05,03,12,05,16.90
2006,05,03,12,06,16.90
2006,05,03,12,07,16.90
2006,05,03,12,08,16.90
2006,05,03,12,09,16.90
2006,05,03,12,10,16.90
2006,05,03,12,11,16.80
2006,05,03,12,12,16.80
2006,05,03,12,13,16.90
2006,05,03,12,14,17.00
2006,05,03,12,15,17.10
2006,05,03,12,16,17.00
2006,05,03,12,17,17.00
2006,05,03,12,18,17.00
2006,05,03,12,19,17.00
2006,05,03,12,20,16.90
2006,05,03,12,21,16.90
2006,05,03,12,22,16.90
2006,05,03,12,23,16.90
2006,05,03,12,24,16.80
2006,05,03,12,25,16.80
2006,05,03,12,26,16.80
2006,05,03,12,27,16.90
2006,05,03,12,28,16.90
2006,05,03,12,29,17.00
2006,05,03,12,30,17.00
2006,05,03,12,31,17.10
2006,05,03,12,32,17.10
2006,05,03,12,33,17.20
2006,05,03,12,34,17.20
2006,05,03,12,35,17.20
2006,05,03,12,36,17.30
2006,05,03,12,37,17.40
2006,05,03,12,38,17.40
2006,05,03,12,39,17.40
2006,05,03,12,40,17.40
2006,05,03,12,41,17.40
2006,05,03,12,42,17.40
2006,05,03,12,43,17.40
2006,05,03,12,44,17.40
2006,05,03,12,45,17.40
2006,05,03,12,46,17.50
2006,05,03,12,47,17.40
2006,05,03,12,48,17.30
2006,05,03,12,49,17.30
2006,05,03,12,50,17.30
2006,05,03,12,51,17.30
2006,05,03,12,52,17.30
2006,05,03,12,53,17.40
2006,05,03,12,54,17.50
2006,05,03,12,55,17.50
2006,05,03,12,56,17.60
2006,05,03,12,57,17.70
2006,05,03,12,58,17.70
2006,05,03,12,59,17.70
2006,05,03,13,00,17.70
2006,05,03,13,01,17.60
2006,05,03,13,02,17.60
2006,05,03,13,03,17.60
2006,05,03,13,04,17.60
2006,05,03,13,05,17.70
2006,05,03,13,06,17.70
2006,05,03,13,07,17.60
2006,05,03,13,08,17.60
2006,05,03,13,09,17.60
2006,05,03,13,10,17.80
2006,05,03,13,11,17.90
2006,05,03,13,12,17.90
2006,05,03,13,13,17.90
2006,05,03,13,14,17.90
2006,05,03,13,15,17.90
2006,05,03,13,16,17.90
2006,05,03,13,17,17.90
2006,05,03,13,18,17.90
2006,05,03,13,19,18.00
2006,05,03,13,20,18.10
2006,05,03,13,21,18.20
2006,05,03,13,22,18.10
2006,05,03,13,23,18.10
2006,05,03,13,24,18.00
2006,05,03,13,25,17.90
2006,05,03,13,26,17.90
2006,05,03,13,27,17.90
2006,05,03,13,28,17.90
2006,05,03,13,29,17.90
2006,05,03,13,30,17.90
2006,05,03,13,31,17.90
2006,05,03,13,32,18.00
2006,05,03,13,33,18.10
2006,05,03,13,34,18.10
2006,05,03,13,35,18.20
2006,05,03,13,36,18.20
2006,05,03,13,37,18.40
2006,05,03,13,38,18.50
2006,05,03,13,39,18.60
2006,05,03,13,40,18.50
2006,05,03,13,41,18.40
2006,05,03,13,42,18.40
2006,05,03,13,43,18.30
2006,05,03,13,44,18.30
2006,05,03,13,45,18.40
2006,05,03,13,46,18.40
2006,05,03,13,47,18.30
2006,05,03,13,48,18.30
2006,05,03,13,49,18.30
2006,05,03,13,50,18.30
2006,05,03,13,51,18.30
2006,05,03,13,52,18.30
2006,05,03,13,53,18.30
2006,05,03,13,54,18.30
2006,05,03,13,55,18.40
2006,05,03,13,56,18.50
2006,05,03,13,57,18.60
2006,05,03,13,58,18.80
2006,05,03,13,59,18.80
2006,05,03,14,00,18.70
2006,05,03,14,01,18.70
2006,05,03,14,02,18.60
2006,05,03,14,03,18.70
2006,05,03,14,04,18.70
2006,05,03,14,05,18.60
2006,05,03,14,06,18.60
2006,05,03,14,07,18.60
2006,05,03,14,08,18.60
2006,05,03,14,09,18.60
2006,05,03,14,10,18.60
2006,05,03,14,11,18.70
2006,05,03,14,12,18.80
2006,05,03,14,13,18.80
2006,05,03,14,14,18.70
2006,05,03,14,15,18.60
2006,05,03,14,16,18.50
2006,05,03,14,17,18.60
2006,05,03,14,18,18.70
2006,05,03,14,19,18.70
2006,05,03,14,20,18.80
2006,05,03,14,21,18.90
2006,05,03,14,22,18.90
2006,05,03,14,23,18.90
2006,05,03,14,24,18.90
2006,05,03,14,25,18.90
2006,05,03,14,26,18.90
2006,05,03,14,27,18.90
2006,05,03,14,28,18.80
2006,05,03,14,29,18.80
2006,05,03,14,30,18.80
2006,05,03,14,31,18.90
2006,05,03,14,32,19.00
2006,05,03,14,33,19.20
2006,05,03,14,34,19.40
2006,05,03,14,35,19.50
2006,05,03,14,36,19.60
2006,05,03,14,37,19.70
2006,05,03,14,38,19.70
2006,05,03,14,39,19.60
2006,05,03,14,40,19.50
2006,05,03,14,41,19.50
2006,05,03,14,42,19.50
2006,05,03,14,43,19.40
2006,05,03,14,44,19.40
2006,05,03,14,45,19.40
2006,05,03,14,46,19.50
2006,05,03,14,47,19.60
2006,05,03,14,48,19.70
2006,05,03,14,49,19.90
2006,05,03,14,50,19.90
2006,05,03,14,51,19.70
2006,05,03,14,52,19.50
2006,05,03,14,53,19.40
2006,05,03,14,54,19.40
2006,05,03,14,55,19.40
2006,05,03,14,56,19.30
2006,05,03,14,57,19.30
2006,05,03,14,58,19.20
2006,05,03,14,59,19.20
2006,05,03,15,00,19.20
2006,05,03,15,01,19.20
2006,05,03,15,02,19.10
2006,05,03,15,03,19.10
2006,05,03,15,04,19.10
2006,05,03,15,05,19.10
2006,05,03,15,06,19.20
2006,05,03,15,07,19.30
2006,05,03,15,08,19.30
2006,05,03,15,09,19.40
2006,05,03,15,10,19.50
2006,05,03,15,11,19.60
2006,05,03,15,12,19.80
2006,05,03,15,13,19.70
2006,05,03,15,14,19.60
2006,05,03,15,15,19.40
2006,05,03,15,16,19.30
2006,05,03,15,17,19.30
2006,05,03,15,18,19.30
2006,05,03,15,19,19.40
2006,05,03,15,20,19.30
2006,05,03,15,21,19.30
2006,05,03,15,22,19.20
2006,05,03,15,23,19.10
2006,05,03,15,24,19.20
2006,05,03,15,25,19.20
2006,05,03,15,26,19.30
2006,05,03,15,27,19.40
2006,05,03,15,28,19.50
2006,05,03,15,29,19.40
2006,05,03,15,30,19.40
2006,05,03,15,31,19.30
2006,05,03,15,32,19.30
2006,05,03,15,33,19.30
2006,05,03,15,34,19.40
2006,05,03,15,35,19.40
2006,05,03,15,36,19.40
2006,05,03,15,37,19.40
2006,05,03,15,38,19.40
2006,05,03,15,39,19.50
2006,05,03,15,40,19.60
2006,05,03,15,41,19.60
2006,05,03,15,42,19.70
2006,05,03,15,43,19.80
2006,05,03,15,44,19.70
2006,05,03,15,45,19.60
2006,05,03,15,46,19.50
2006,05,03,15,47,19.50
2006,05,03,15,48,19.60
2006,05,03,15,49,19.50
2006,05,03,15,50,19.50
2006,05,03,15,51,19.60
2006,05,03,15,52,19.70
2006,05,03,15,53,19.60
2006,05,03,15,54,19.60
2006,05,03,15,55,19.70
2006,05,03,15,56,19.70
2006,05,03,15,57,19.70
2006,05,03,15,58,19.70
2006,05,03,15,59,19.70
2006,05,03,16,00,19.70
2006,05,03,16,01,19.70
2006,05,03,16,02,19.70
2006,05,03,16,03,19.70
2006,05,03,16,04,19.60
2006,05,03,16,05,19.40
2006,05,03,16,06,19.40
2006,05,03,16,07,19.40
2006,05,03,16,08,19.50
2006,05,03,16,09,19.60
2006,05,03,16,10,19.60
2006,05,03,16,11,19.50
2006,05,03,16,12,19.50
2006,05,03,16,13,19.50
2006,05,03,16,14,19.50
2006,05,03,16,15,19.70
2006,05,03,16,16,19.80
2006,05,03,16,17,19.80
2006,05,03,16,18,19.70
2006,05,03,16,19,19.60
2006,05,03,16,20,19.50
2006,05,03,16,21,19.50
2006,05,03,16,22,19.40
2006,05,03,16,23,19.30
2006,05,03,16,24,19.40
2006,05,03,16,25,19.50
2006,05,03,16,26,19.40
2006,05,03,16,27,19.40
2006,05,03,16,28,19.30
2006,05,03,16,29,19.30
2006,05,03,16,30,19.40
2006,05,03,16,31,19.60
2006,05,03,16,32,19.60
2006,05,03,16,33,19.60
2006,05,03,16,34,19.60
2006,05,03,16,35,19.50
2006,05,03,16,36,19.50
2006,05,03,16,37,19.50
2006,05,03,16,38,19.50
2006,05,03,16,39,19.60
2006,05,03,16,40,19.60
2006,05,03,16,41,19.80
2006,05,03,16,42,19.80
2006,05,03,16,43,19.80
2006,05,03,16,44,19.80
2006,05,03,16,45,19.70
2006,05,03,16,46,19.70
2006,05,03,16,47,19.60
2006,05,03,16,48,19.60
2006,05,03,16,49,19.60
2006,05,03,16,50,19.60
2006,05,03,16,51,19.70
2006,05,03,16,52,19.80
2006,05,03,16,53,19.70
2006,05,03,16,54,19.70
2006,05,03,16,55,19.70
2006,05,03,16,56,19.70
2006,05,03,16,57,19.60
2006,05,03,16,58,19.60
2006,05,03,16,59,19.60
2006,05,03,17,00,19.60
2006,05,03,17,01,19.60
2006,05,03,17,02,19.60
2006,05,03,17,03,19.60
2006,05,03,17,04,19.60
2006,05,03,17,05,19.70
2006,05,03,17,06,19.70
2006,05,03,17,07,19.80
2006,05,03,17,08,19.80
2006,05,03,17,09,19.60
2006,05,03,17,10,19.50
2006,05,03,17,11,19.50
2006,05,03,17,12,19.60
2006,05,03,17,13,19.70
2006,05,03,17,14,19.80
2006,05,03,17,15,19.80
2006,05,03,17,16,19.90
2006,05,03,17,17,19.90
2006,05,03,17,18,20.00
2006,05,03,17,19,19.90
2006,05,03,17,20,19.90
2006,05,03,17,21,20.00
2006,05,03,17,22,20.10
2006,05,03,17,23,20.10
2006,05,03,17,24,20.10
2006,05,03,17,25,19.90
2006,05,03,17,26,19.80
2006,05,03,17,27,19.60
2006,05,03,17,28,19.50
2006,05,03,17,29,19.50
2006,05,03,17,30,19.50
2006,05,03,17,31,19.50
2006,05,03,17,32,19.60
2006,05,03,17,33,19.60
2006,05,03,17,34,19.60
2006,05,03,17,35,19.60
2006,05,03,17,36,19.60
2006,05,03,17,37,19.70
2006,05,03,17,38,19.70
2006,05,03,17,39,19.70
2006,05,03,17,40,19.70
2006,05,03,17,41,19.70